STARLINK-11340, 61690

Orbit data source: Space-Track

STARLINK-11340, 61690 is a payload satellite owned by SpaceX/Seattle (US) in LEO that was launched on Wed, 30 Oct 2024 UTC via an FALCON 9 launch vehicle from the Air Force Western Test Range (AFWTR). Payload-class satellites include a variety of spacecraft equipped with specific instruments for various scientific and technological missions. These include communications satellites like Starlink; space stations such as the ISS; scientific satellites like the Hubble; Earth observation satellites from companies like Planet Labs, Umbra, and HawkEye 360; GPS; miniature CubeSats for education and research; and military/defense satellites.

Loading next visibility...
Identifier
61690, 2024-195D
Orbit
LEO
Country
Flag of USUS
Related business
Manufacturer
SpaceX/Seattle
Mission
Operational Commercial Communications
Bus & Motor
STARLINK V2MD, Unknown motor
Mass
960 kg wet, ~910 kg dry
Launch date (UTC)
2024-10-30 (2 years ago)
Launch vehicle
FALCON 9
Launch site
Air Force Western Test Range (AFWTR)
Object type
Payload
Rocket body
Debris
Shape & HBR
Box + 2 Pan, 18.1 m
Radar Cross Section
36.964 m², Large (>1 m²)

Expand to show TLE details & history
Last TLE update: 9 hours ago

TLE from 9 hours ago
0 STARLINK-11340
1 61690U 24195D   26171.46788516  .00006626  00000-0  59591-4 0  9998
2 61690  53.1592 239.7854 0001213  51.5392 308.5734 15.69675282 95172
Epoch: 2026-06-20T11:13Z
TLE epoch observation values (Epoch: 2026-06-20T11:13:45.277Z)
Latitude
-0.00009°
Longitude
162.6646°
Altitude
360.232 km
Speed
7.695 km/s
True Right ascension
15h 59m 08s
True Declination
0° 00' 00"
Sunlit
Object was in full shadow at epoch
Visualization orbit readout
Latitude
Unknown
Longitude
Unknown
Altitude
Unknown
Speed
Unknown
Apparent Right ascension
Unknown
Apparent Declination
Unknown
Sunlit
N/A
Visualization observer readout
Local Sidereal Time
07:13:04
Azimuth
Unknown
Elevation
Unknown
Doppler factor
Unknown
Orbital elements
Apogee altitude
360.904 km
Perigee altitude
359.27 km
Semi-major axis
6,738.224 km
Eccentricity
0.00012
Inclination
53.1592°
RAAN
239.7854°
Arg. of periapsis
51.5392°
True anomaly
308.56253°
Mean anomaly
308.5734°
Eccentric anomaly
308.56797°
Mean motion
3.92396 °/min
Orbital period
91.74 mins
BSTAR
0.000059591
Loading maneuver chart data...
Computing Atmospheric mass density...
Loading historical data...
Loading historical data...
Loading historical data...
Loading historical data...
Loading historical data...
Loading historical data...
Loading historical data...

Documentation

Showing up to 5 results
|